Regional Weather Roundup
Issued by NWS Albany, NY

Home | Current Version | Previous Version | Text Only | Print | Product List | Glossary On
Versions: 1 2 3 4 5 6 7 8 9 10 11 12 13 14 15 16 17 18 19 20 21 22 23 24 25 26 27 28 29 30 31 32 33 34 35 36 37 38 39 40 41 42 43 44 45 46 47 48 49 50
000
ASUS41 KALY 100810
RWRALY

NEW YORK STATE HOURLY WEATHER ROUNDUP
NATIONAL WEATHER SERVICE ALBANY NY
300 AM EST SAT DEC 10 2016

NOTE: "FAIR" INDICATES FEW OR NO CLOUDS BELOW 12,000 FEET WITH NO
SIGNIFICANT WEATHER AND/OR NO OBSTRUCTIONS TO VISIBILITY.

NYZ032-033-038>043-046>054-057>066-NYZ062>081-082-084-100900-
EAST


CITY           SKY/WX    TMP DP  RH WIND       PRES   REMARKS
ALBANY         PTCLDY    18  11  74 N5        30.29R WCI  11
GLENS FALLS    CLEAR     19   6  57 W3        30.28R
POUGHKEEPSIE   CLEAR     18  13  80 CALM      30.30R
NEWBURGH       CLEAR     23  18  80 W9        30.30R WCI  13
MONTGOMERY     CLEAR     17  14  88 W5        30.29R WCI  10
WHITE PLAINS   CLEAR     26  15  63 W12G20    30.28R WCI  16
ISLIP          CLEAR     27  15  61 NW9       30.30R WCI  18
NEW YORK CITY  PTCLDY    32  16  51 NW15G22   30.32R WCI  22
CENTRAL PARK   CLEAR     30  14  51 W7        30.34R WCI  23
$$

NYZ005>009-017-018-044>046-055-056-100900-
CENTRAL


CITY           SKY/WX    TMP DP  RH WIND       PRES   REMARKS
FULTON         CLOUDY    22  11  62 W5        30.31R WCI  16
SYRACUSE       FLURRIES  20  17  88 W10       30.31R WCI   9
ROME           CLOUDY    12  10  92 CALM      30.32R
ELMIRA         NOT AVBL
BINGHAMTON     NOT AVBL
MONTICELLO     CLEAR     19  18  93 W9        30.23S WCI   9
$$

NYZ026>034-041>043-087-100900-
NORTH


CITY           SKY/WX    TMP DP  RH WIND       PRES   REMARKS
WATERTOWN      CLEAR     15  11  83 CALM      30.32R
FORT DRUM      NOT AVBL
OGDENSBURG     FAIR      16  14  90 NW3       30.31S
MASSENA        CLOUDY    20  12  71 SW7       30.31S WCI  11
SARANAC LAKE   CLOUDY    12   6  77 W3        30.15R
PLATTSBURGH    CLOUDY    21   6  52 NW12G20   30.27R WCI   9
$$

NYZ001>004-010>016-019>021-085-100900-
WEST


CITY           SKY/WX    TMP DP  RH WIND       PRES   REMARKS
NIAGARA FALLS  CLOUDY    26  19  74 W3        30.31S
BUFFALO        MOCLDY    25  18  74 NW5       30.31R WCI  19
DUNKIRK        CLOUDY    30  19  63 NW13      30.31S WCI  20
JAMESTOWN      CLOUDY    21  18  86 W8        30.25S WCI  12
WELLSVILLE     LGT SNOW  21  16  81 NW5       30.24R WCI  15
ROCHESTER      PTCLDY    18  16  92 W3        30.33R
PENN YAN       CLOUDY    22  15  75 NW3       30.30R
$$

             KEY
       WCI = WIND CHILL INDEX
       VSB = VISIBILITY
       HX  = HEAT INDEX
$$



USA.gov is the U.S. government's official web portal to all federal, state and local government web resources and services.